Miscellaneous Local Product
Issued by NWS North Platte, NE

Home | Current Version | Previous Version | Text Only | Print | Product List | Glossary On
Versions: 1 2 3 4 5 6 7 8 9 10 11 12 13 14 15 16 17 18 19 20 21 22 23 24 25 26 27 28 29 30 31 32 33 34 35 36 37 38 39 40 41 42 43 44 45 46 47 48 49 50
000
AXUS43 KLBF 281110
MISLBF


WESTERN AND NORTH CENTRAL NEBRASKA HOURLY WEATHER ROUNDUP
NATIONAL WEATHER SERVICE NORTH PLATTE NE
600 AM CDT MON JUL 28 2014

***STATIONS NOT REPORTING VARIABLES SUCH AS SKY/WEATHER OR
PRESSURE ARE PROVIDED BY THE NEBRASKA DEPARTMENT OF
ROADS...RAWS...AND APRS NETWORKS...AND ARE NOT UNDER
NATIONAL WEATHER SERVICE QUALITY CONTROL***

...OBSERVATIONS IN AND NEAR THE EASTERN PANHANDLE OF NEBRASKA...

CITY           SKY/WX    TMP DP  RH WIND       PRES   REMARKS
PINE RIDGE     CLEAR     52  50  93 NE5       30.35S
CHADRON        CLEAR     55  50  83 N3        30.34S
ALLIANCE       CLEAR     53  48  83 E7        30.34S
SIDNEY         CLEAR     59  48  67 SE8       30.34F
WHITECLAY        N/A     49  45  85 CALM        N/A
RUSHVILLE        N/A     55  52  88 E10         N/A
GORDON           N/A     55  54  94 SE9         N/A
CRESCENT LAKE    N/A     56  49  76 E8          N/A
LISCO            N/A     59  48  67 E5          N/A
BIG SPRINGS      N/A     56  52  87 CALM        N/A
$$

...OBSERVATIONS IN NORTH CENTRAL NEBRASKA...

CITY           SKY/WX    TMP DP  RH WIND       PRES   REMARKS
VALENTINE      PTCLDY    50  48  93 CALM      30.34S
THEDFORD       CLEAR     51  49  93 CALM      30.35S
AINSWORTH      PTCLDY    52  52 100 CALM      30.34R
O`NEILL        CLEAR     53  50  90 W6        30.31R
ORD            CLEAR     52  51  97 W5        30.30R
BROKEN BOW     CLEAR     53  51  93 CALM      30.33R
BROWNLEE         N/A     58  54  86 CALM        N/A
SPRINGVIEW       N/A     51  49  92 CALM        N/A
DUNNING          N/A     54  54  99 CALM        N/A
ROSE             N/A     56  56  99 N3          N/A
NEWPORT          N/A     49  49  99 CALM        N/A
SARGENT          N/A     53  52  97 CALM        N/A
COMSTOCK         N/A     57  57 100 W6          N/A
CHAMBERS         N/A     51  49  94 CALM        N/A
EWING            N/A     53  50  90 CALM        N/A
$$

...OBSERVATIONS IN SOUTHWEST NEBRASKA AND FAR NORTHEAST COLORADO...

CITY           SKY/WX    TMP DP  RH WIND       PRES   REMARKS
WRAY             N/A     61  49  65 E3        30.32S
HOLYOKE        FAIR      59  54  82 E6        30.32S
IMPERIAL       PTCLDY    57  50  77 E3        30.32S
OGALLALA       CLEAR     54  50  86 E5        30.33R
NORTH PLATTE   CLEAR     53  50  89 E3        30.33R
MCCOOK         PTCLDY    58  54  86 E3        30.31R
LEXINGTON      CLEAR     55  54  95 CALM      30.32R
PAXTON           N/A     54  51  90 CALM        N/A
SUTHERLAND       N/A     51  48  92 CALM        N/A
BRADY            N/A     53  49  85 CALM        N/A
CALLAWAY         N/A     52  50  93 CALM        N/A
$$

...SOME WEATHER OBSERVATIONS FROM AROUND THE REGION...

CITY           SKY/WX    TMP DP  RH WIND       PRES   REMARKS
DENVER         PTCLDY    63  53  70 S8        30.34R
LARAMIE        CLEAR     52  51  97 S3        30.45S FOG
CHEYENNE       CLEAR     54  51  90 W6        30.40S
SCOTTSBLUFF    CLEAR     61  49  64 E12       30.32S
RAPID CITY     PTCLDY    51  49  92 CALM      30.35F
PIERRE         CLEAR     53  51  93 W3        30.31S
WINNER         FAIR      51  49  92 SW5       30.32S
SIOUX FALLS    CLOUDY    59  55  87 NW9       30.26R
OMAHA          CLEAR     58  54  86 N6        30.22S
GRAND ISLAND   CLEAR     56  54  93 W5        30.30R
KANSAS CITY    CLEAR     59  56  89 NW7       30.17R
WICHITA        PTCLDY    68  57  68 NE8       30.20R
HAYS           PTCLDY    64  54  68 NE9       30.27R
LIBERAL        CLOUDY    70  57  64 W14       30.34R
GOODLAND       PTCLDY    59  53  80 SE6       30.33R
$$



USA.gov is the U.S. government's official web portal to all federal, state and local government web resources and services.